#timestamp,LO_Frequency,Hit,StdDev 
1583323215.5,286046996.6,Y
1583323235.3,286047000.5,P
1583323255.1,286047000.8,N
1583323275.9,286047000.0,N
1583323295.7,286047000.9,N
1583323315.6,286047000.0,N
1583323335.4,286047002.3,Y
1583323355.2,286047000.6,P
1583323375.1,286046998.4,P
1583323376.0,286046998.4,N
1583323395.8,286047000.6,N
1583323415.6,286047000.3,N
1583323435.5,286046998.6,N
1583323455.3,286046997.0,Y
1583323475.2,286046997.0,P
1583323495.9,286046997.0,N
1583323515.7,286046998.5,N
1583323535.6,286046998.7,N
1583323555.4,286046999.3,N
1583323575.3,286046999.2,N
1583323595.1,286046996.5,Y
1583323596.0,286046996.5,P
1583323615.8,286047000.4,N
1583323635.7,286046999.9,N
1583323655.5,286047000.1,N
1583323675.4,286047000.7,N
1583323695.2,286047000.2,N
1583323715.0,286047001.0,N
1583323715.9,286047001.0,N
1583323735.8,286047001.0,N
1583323755.6,286047000.2,N
1583323775.5,286046999.8,N
1583323795.3,286047002.7,N
1583323815.1,286047005.9,Y
1583323835.9,286047005.0,P
1583323855.7,286047001.8,N
1583323875.5,286047004.0,N
1583323895.4,286047002.6,N
1583323915.2,286046999.9,N
1583323935.1,286047002.7,N
1583323936.0,286047002.7,N
1583323955.8,286047002.1,N
1583323975.6,286047004.4,N
1583323995.5,286047003.8,N
1583324015.3,286047001.9,N
1583324035.2,286047000.2,N
1583324055.9,286047000.0,N
1583324075.7,286047001.8,N
1583324095.6,286047001.5,N
1583324115.4,286047003.8,N
1583324135.2,286047001.3,N
1583324155.1,286047000.2,N
1583324156.0,286047000.2,N
1583324175.8,286047002.7,N
1583324195.7,286047001.3,N
1583324215.5,286046999.9,N
1583324235.3,286047003.0,N
1583324255.2,286047005.6,Y
1583324275.0,286047003.4,P
1583324275.9,286047003.4,P
1583324295.8,286046999.8,N
1583324315.6,286047000.9,N
1583324335.4,286046998.2,N
1583324355.3,286047000.6,N
1583324375.1,286047002.7,N
1583324425.9,286047004.0,E
1583324435.8,286046999.7,N
1583324455.6,286047000.9,P
1583324475.5,286046999.8,N
1583324495.3,286047000.3,N
1583324515.1,286046999.8,N
1583324535.9,286047000.7,N
1583324555.7,286046999.1,N
1583324575.6,286046996.6,Y
1583324595.4,286046997.2,P
1583324615.2,286047002.2,N
1583324635.1,286047001.0,N
1583324636.0,286047001.0,N
1583324655.8,286047002.6,N
1583324675.7,286046999.9,N
1583324695.5,286046999.8,N
1583324715.3,286047000.8,N
1583324735.2,286046999.0,N
1583324755.0,286046999.5,N
1583324755.9,286046999.5,N
1583324775.8,286046999.6,N
1583324795.6,286047001.0,N
1583324815.4,286047000.4,N
1583324835.3,286047000.0,N
1583324855.1,286046999.4,N
1583324875.8,286046996.5,N
1583324895.7,286046996.5,N
1583324915.5,286046998.1,N
1583324935.4,286047000.3,N
1583324955.2,286046999.9,N
1583324975.0,286047002.7,N
1583324975.9,286047002.7,N
1583324995.8,286047000.4,N
1583325015.6,286047000.1,N
1583325035.5,286047002.4,N
1583325055.3,286047004.1,N
1583325075.1,286047004.4,N
1583325095.9,286046999.8,N
1583325115.7,286047000.0,N
1583325135.6,286046999.9,N
1583325155.4,286046999.9,N
1583325175.2,286047002.5,N
1583325195.1,286047002.4,N
1583325196.0,286047002.4,N
1583325215.8,286047001.3,N
1583325235.6,286047002.1,N
1583325255.5,286047002.5,N
1583325275.3,286047000.4,N
1583325295.2,286047002.2,N
1583325315.9,286047000.1,N
1583325335.7,286046998.6,N
1583325355.6,286047001.8,N
1583325375.4,286047002.5,N
1583325395.2,286047002.4,N
1583325415.1,286047000.2,N
1583325416.0,286047000.2,N
1583325435.8,286047000.7,N
1583325455.7,286047000.3,N
1583325475.5,286046998.4,N
1583325495.3,286047000.6,N
1583325515.2,286047001.1,N
1583325535.0,286047000.8,N
1583325535.9,286047000.8,N
1583325555.8,286047001.2,N
1583325575.6,286046997.0,N
1583325595.4,286046997.4,N
1583325615.3,286046997.0,N
1583325635.1,286046999.3,N
1583325655.8,286046999.6,N
1583325675.7,286046998.7,N
1583325695.5,286046999.0,N
1583325715.4,286046999.8,N
1583325735.2,286047002.0,N
1583325755.0,286047001.8,N
1583325755.9,286047001.8,N
1583325775.8,286046999.9,N
1583325795.6,286047000.5,N
1583325815.5,286047001.7,N
1583325835.3,286047004.2,N
1583325855.1,286047005.6,Y
1583325875.9,286047001.4,P
1583325895.7,286047004.4,P
1583325915.5,286047003.9,N
1583325935.4,286047004.0,N
1583325955.2,286047001.6,N
1583325975.1,286047002.7,N
1583325976.0,286047002.7,N
1583325995.8,286047000.1,N
1583326015.6,286047000.1,N
1583326035.5,286047004.4,N
1583326055.3,286047001.4,N
1583326075.2,286047002.5,N
1583326095.9,286047002.3,N
1583326115.7,286047001.3,N
1583326135.6,286047003.8,N
1583326155.4,286047002.4,N
1583326175.2,286047000.4,N
1583326195.1,286046999.9,N
1583326196.0,286046999.9,N
1583326215.8,286046999.8,N
1583326235.7,286046999.7,N
1583326255.5,286047000.3,N
1583326275.3,286047002.1,N
1583326295.2,286047001.5,N
1583326315.0,286047002.6,N
1583326315.9,286047002.6,N
1583326335.8,286047002.4,N
1583326355.6,286047003.8,N
1583326375.4,286047003.9,N
1583326395.3,286047000.0,N
1583326415.1,286047000.1,N
1583326435.9,286047000.4,N
1583326455.7,286047002.6,N
1583326475.5,286047001.3,N
1583326495.4,286046999.7,N
1583326515.2,286046998.1,N
1583326535.0,286047000.0,N
1583326536.0,286047000.0,N
1583326555.8,286046998.3,N
1583326575.6,286047000.9,N
1583326595.5,286047002.5,N
1583326615.3,286047001.1,N
1583326635.1,286047001.2,N
1583326655.9,286047001.2,N
1583326675.7,286047000.1,N
1583326695.6,286047001.3,N
1583326715.4,286047001.4,N
1583326735.2,286047005.8,Y
1583326755.1,286047003.4,P
1583326756.0,286047003.4,N
1583326775.8,286047006.0,P
1583326795.7,286047005.5,Y
